Flag for U.S.A. Weather past 2 weeks in Sacramento, California, U.S.A.

Now
63 °F

Clear.


Feels Like: 63 °F
Forecast: 59 / 85 °F
Wind: 7 mph from South

Location: Sacramento Executive Airport

Current Time: Aug 3, 2015 at 3:42:39 AM

Latest Report: Aug 3, 2015 at 2:53 AM


Visibility: 10 mi

Pressure: 29.85 "Hg

Humidity: 78%

Dew point: 56 °F

Location of SacramentoLocation

Historic Weather in Sacramento — Graph

°F

Sacramento temperature yesterday

Maximum temperature yesterday: 90 °F (at 3:53 PM)
Minimum temperature yesterday: 63 °F (at 4:53 AM)
Average temperature yesterday: 74 °F

Past Weeks' High & Low Weather Summary

 TemperatureHumidityPressure
High106 °F (Jul 29, 4:53 PM)87% (Jul 26, 3:53 AM)30.09 "Hg (Jul 26, 3:53 AM)
Low59 °F (Jul 23, 3:53 AM)7% (Jul 27, 5:53 PM)29.72 "Hg (Jul 21, 5:53 PM)
Average76 °F52%29.89 "Hg
* Reported Jul 19 1:53 AM — Aug 3 1:53 AM, Sacramento, Weather by CustomWeather, © 2015

Note: Actual official high and low records may vary slightly from our data, if they occured in-between our weather recording intervals... More about our weather records

Advertising

Sacramento weather history for previous 24 hours

 ConditionsComfort  
Time TempWeatherWind HumidityBarometerVisibility
1:53 AM
Mon, Aug 3
63 °FClear.6 mph78%29.84 "Hg10 mi
12:53 AM65 °FClear.8 mph73%29.84 "Hg10 mi
11:53 PM
Sun, Aug 2
66 °FClear.10 mph68%29.85 "Hg10 mi
10:53 PM67 °FClear.5 mph66%29.85 "Hg10 mi
9:53 PM70 °FClear.6 mph55%29.83 "Hg10 mi
8:53 PM73 °FSunny.8 mph50%29.82 "Hg10 mi
7:53 PM77 °FSunny.10 mph47%29.81 "Hg10 mi
6:53 PM82 °FSunny.12 mph43%29.80 "Hg10 mi
5:53 PM87 °FSunny.12 mph37%29.81 "Hg10 mi
4:53 PM88 °FSunny.13 mph38%29.81 "Hg10 mi
3:53 PM90 °FSunny.10 mph34%29.83 "Hg10 mi
2:53 PM86 °FSunny.9 mph40%29.85 "Hg10 mi
1:53 PM85 °FPartly sunny.12 mph42%29.87 "Hg10 mi
12:53 PM83 °FSunny.6 mph44%29.89 "Hg10 mi
11:53 AM79 °FSunny.10 mph50%29.90 "Hg10 mi
10:53 AM76 °FSunny.8 mph56%29.91 "Hg10 mi
9:53 AM73 °FSunny.8 mph62%29.91 "Hg10 mi
8:53 AM69 °FSunny.10 mph70%29.91 "Hg10 mi
7:53 AM65 °FSunny.8 mph78%29.90 "Hg10 mi
6:53 AM63 °FClear.8 mph84%29.89 "Hg10 mi
5:53 AM63 °FClear.7 mph84%29.87 "Hg10 mi
4:53 AM63 °FClear.7 mph84%29.86 "Hg10 mi
3:53 AM64 °FClear.7 mph81%29.88 "Hg10 mi
Weather by CustomWeather, © 2015

See weather overviewHow to use our weather pages